Time,TemperatureF,DewpointF,PressureIn,WindDirection,WindDirectionDegrees,WindSpeedMPH,WindSpeedGustMPH,Humidity,HourlyPrecipIn,Conditions,Clouds,dailyrainin,SoftwareType,DateUTC
2013-04-09 00:01:00,38.0,30.0,29.78,NNE,27,0.0,16.0,72,0.00,,,0.29,,2013-04-09 07:01:00,
2013-04-09 00:12:00,38.0,30.0,29.78,NNE,27,0.0,16.0,72,0.00,,,0.29,,2013-04-09 07:12:00,
2013-04-09 00:22:00,38.0,28.0,29.78,NNE,32,7.0,19.0,68,0.00,,,0.29,,2013-04-09 07:22:00,
2013-04-09 00:32:00,38.0,27.0,29.79,NNW,336,11.0,22.0,64,0.00,,,0.29,,2013-04-09 07:32:00,
2013-04-09 00:41:00,38.0,27.0,29.79,NNW,336,11.0,22.0,64,0.00,,,0.29,,2013-04-09 07:41:00,
2013-04-09 00:52:00,38.0,27.0,29.79,North,350,7.0,20.0,65,0.00,,,0.29,,2013-04-09 07:52:00,
2013-04-09 01:02:00,38.0,27.0,29.79,North,351,5.0,17.0,63,0.00,,,0.29,,2013-04-09 08:02:00,
2013-04-09 01:11:00,38.0,27.0,29.79,North,351,5.0,17.0,63,0.00,,,0.29,,2013-04-09 08:11:00,
2013-04-09 01:21:00,38.0,26.0,29.79,SSE,161,9.0,22.0,62,0.00,,,0.29,,2013-04-09 08:21:00,
2013-04-09 01:32:00,38.0,27.0,29.80,NNE,13,8.0,22.0,64,0.00,,,0.29,,2013-04-09 08:32:00,
2013-04-09 01:42:00,38.0,27.0,29.80,NNE,13,8.0,22.0,64,0.00,,,0.29,,2013-04-09 08:42:00,
2013-04-09 01:52:00,38.0,27.0,29.80,NE,42,9.0,21.0,64,0.00,,,0.29,,2013-04-09 08:52:00,
2013-04-09 02:01:00,37.0,26.0,29.79,NNE,26,6.0,17.0,65,0.00,,,0.29,,2013-04-09 09:01:00,
2013-04-09 02:12:00,37.0,26.0,29.80,North,360,11.0,24.0,64,0.00,,,0.29,,2013-04-09 09:12:00,
2013-04-09 02:22:00,37.0,26.0,29.80,North,360,11.0,24.0,64,0.00,,,0.29,,2013-04-09 09:22:00,
2013-04-09 02:32:00,37.0,26.0,29.78,West,260,7.0,24.0,65,0.00,,,0.29,,2013-04-09 09:32:00,
2013-04-09 02:43:00,37.0,26.0,29.78,West,260,7.0,24.0,65,0.00,,,0.29,,2013-04-09 09:43:00,
2013-04-09 02:52:00,37.0,26.0,29.78,NNW,344,7.0,20.0,65,0.00,,,0.29,,2013-04-09 09:52:00,
2013-04-09 03:03:00,37.0,27.0,29.78,ENE,61,8.0,17.0,66,0.00,,,0.29,,2013-04-09 10:03:00,
2013-04-09 03:12:00,37.0,27.0,29.78,ENE,61,8.0,17.0,66,0.00,,,0.29,,2013-04-09 10:12:00,
2013-04-09 03:22:00,36.0,26.0,29.77,NW,319,10.0,24.0,66,0.00,,,0.29,,2013-04-09 10:22:00,
2013-04-09 03:32:00,36.0,26.0,29.77,NE,44,6.0,21.0,68,0.00,,,0.29,,2013-04-09 10:32:00,
2013-04-09 03:42:00,36.0,26.0,29.77,NE,44,6.0,21.0,68,0.00,,,0.29,,2013-04-09 10:42:00,
2013-04-09 03:52:00,36.0,26.0,29.77,NE,44,6.0,21.0,68,0.00,,,0.29,,2013-04-09 10:52:00,
2013-04-09 04:02:00,36.0,26.0,29.77,North,5,8.0,17.0,67,0.00,,,0.29,,2013-04-09 11:02:00,
2013-04-09 04:11:00,36.0,26.0,29.77,North,5,8.0,17.0,67,0.00,,,0.29,,2013-04-09 11:11:00,
2013-04-09 04:22:00,36.0,26.0,29.76,North,360,11.0,20.0,66,0.00,,,0.29,,2013-04-09 11:22:00,
2013-04-09 04:32:00,36.0,26.0,29.78,NNW,339,11.0,18.0,66,0.00,,,0.29,,2013-04-09 11:32:00,
2013-04-09 04:42:00,36.0,26.0,29.78,NNW,339,11.0,18.0,66,0.00,,,0.29,,2013-04-09 11:42:00,
2013-04-09 04:52:00,36.0,26.0,29.78,NNW,345,10.0,22.0,66,0.00,,,0.29,,2013-04-09 11:52:00,
2013-04-09 05:01:00,36.0,26.0,29.78,NNE,30,12.0,23.0,67,0.00,,,0.29,,2013-04-09 12:01:00,
2013-04-09 05:12:00,36.0,26.0,29.78,NNE,30,12.0,23.0,67,0.00,,,0.29,,2013-04-09 12:12:00,
2013-04-09 05:21:00,36.0,26.0,29.78,NNW,327,6.0,19.0,67,0.00,,,0.29,,2013-04-09 12:21:00,
2013-04-09 05:32:00,36.0,26.0,29.78,ENE,60,12.0,23.0,66,0.00,,,0.29,,2013-04-09 12:32:00,
2013-04-09 05:42:00,36.0,26.0,29.78,ENE,60,12.0,23.0,66,0.00,,,0.29,,2013-04-09 12:42:00,
2013-04-09 05:53:00,36.0,26.0,29.79,NW,319,8.0,25.0,66,0.00,,,0.29,,2013-04-09 12:53:00,
2013-04-09 06:01:00,36.0,26.0,29.79,North,355,4.0,28.0,66,0.00,,,0.29,,2013-04-09 13:01:00,
2013-04-09 06:11:00,36.0,26.0,29.79,North,355,4.0,28.0,66,0.00,,,0.29,,2013-04-09 13:11:00,
2013-04-09 06:22:00,36.0,26.0,29.80,NNE,27,12.0,23.0,66,0.00,,,0.29,,2013-04-09 13:22:00,
2013-04-09 06:32:00,36.0,26.0,29.80,North,360,13.0,29.0,66,0.00,,,0.29,,2013-04-09 13:32:00,
2013-04-09 06:41:00,36.0,26.0,29.80,North,360,13.0,29.0,66,0.00,,,0.29,,2013-04-09 13:41:00,
2013-04-09 06:52:00,35.0,26.0,29.82,NNW,345,13.0,25.0,69,0.00,,,0.29,,2013-04-09 13:52:00,
2013-04-09 07:02:00,35.0,26.0,29.83,NNE,30,11.0,25.0,70,0.00,,,0.29,,2013-04-09 14:02:00,
2013-04-09 07:11:00,35.0,26.0,29.83,NNE,30,11.0,25.0,70,0.00,,,0.29,,2013-04-09 14:11:00,
2013-04-09 07:21:00,35.0,27.0,29.83,NE,43,11.0,30.0,71,0.01,,,0.30,,2013-04-09 14:21:00,
2013-04-09 07:31:00,35.0,27.0,29.85,NE,46,13.0,24.0,71,0.01,,,0.30,,2013-04-09 14:31:00,
2013-04-09 07:41:00,35.0,27.0,29.85,NE,46,13.0,24.0,71,0.01,,,0.30,,2013-04-09 14:41:00,
2013-04-09 07:52:00,35.0,26.0,29.85,NNE,31,13.0,26.0,70,0.01,,,0.30,,2013-04-09 14:52:00,
2013-04-09 08:01:00,35.0,26.0,29.86,NNW,345,12.0,31.0,70,0.01,,,0.30,,2013-04-09 15:01:00,
2013-04-09 08:11:00,35.0,26.0,29.86,NNW,345,12.0,31.0,70,0.01,,,0.30,,2013-04-09 15:11:00,
2013-04-09 08:21:00,35.0,26.0,29.87,North,355,14.0,25.0,70,0.00,,,0.30,,2013-04-09 15:21:00,
2013-04-09 08:33:00,36.0,26.0,29.87,NE,47,13.0,32.0,68,0.00,,,0.30,,2013-04-09 15:33:00,
2013-04-09 08:42:00,36.0,26.0,29.87,NE,47,13.0,32.0,68,0.00,,,0.30,,2013-04-09 15:42:00,
2013-04-09 08:53:00,36.0,26.0,29.87,NW,306,17.0,28.0,67,0.00,,,0.30,,2013-04-09 15:53:00,
2013-04-09 09:02:00,36.0,26.0,29.87,NW,306,17.0,28.0,67,0.00,,,0.30,,2013-04-09 16:02:00,
2013-04-09 09:12:00,36.0,26.0,29.87,NW,306,17.0,28.0,67,0.00,,,0.30,,2013-04-09 16:12:00,
2013-04-09 09:22:00,36.0,27.0,29.85,North,360,18.0,37.0,70,0.00,,,0.30,,2013-04-09 16:22:00,
2013-04-09 09:33:00,37.0,27.0,29.87,NNW,348,20.0,36.0,67,0.00,,,0.30,,2013-04-09 16:33:00,
2013-04-09 09:42:00,37.0,27.0,29.87,NNW,348,20.0,36.0,67,0.00,,,0.30,,2013-04-09 16:42:00,
2013-04-09 09:52:00,38.0,27.0,29.87,North,355,17.0,27.0,64,0.00,,,0.30,,2013-04-09 16:52:00,
2013-04-09 10:02:00,39.0,27.0,29.86,North,355,16.0,29.0,63,0.00,,,0.30,,2013-04-09 17:02:00,
2013-04-09 10:12:00,40.0,27.0,29.87,North,5,16.0,23.0,60,0.00,,,0.30,,2013-04-09 17:12:00,
2013-04-09 10:22:00,40.0,27.0,29.87,North,5,16.0,23.0,60,0.00,,,0.30,,2013-04-09 17:22:00,
2013-04-09 10:32:00,40.0,27.0,29.88,NW,304,14.0,23.0,59,0.00,,,0.30,,2013-04-09 17:32:00,
2013-04-09 10:42:00,40.0,27.0,29.88,NW,304,14.0,23.0,59,0.00,,,0.30,,2013-04-09 17:42:00,
2013-04-09 10:53:00,41.0,28.0,29.90,NNW,342,12.0,22.0,59,0.00,,,0.30,,2013-04-09 17:53:00,
2013-04-09 11:01:00,41.0,28.0,29.90,NNW,348,14.0,23.0,59,0.00,,,0.30,,2013-04-09 18:01:00,
2013-04-09 11:12:00,41.0,28.0,29.90,NNW,348,14.0,23.0,59,0.00,,,0.30,,2013-04-09 18:12:00,
2013-04-09 11:22:00,42.0,30.0,29.90,NNW,346,13.0,23.0,61,0.00,,,0.30,,2013-04-09 18:22:00,
2013-04-09 11:32:00,43.0,28.0,29.90,NNE,26,13.0,22.0,56,0.00,,,0.28,,2013-04-09 18:32:00,
2013-04-09 11:42:00,43.0,28.0,29.90,NNE,26,13.0,22.0,56,0.00,,,0.28,,2013-04-09 18:42:00,
2013-04-09 11:52:00,43.0,28.0,29.91,NNE,31,14.0,22.0,55,0.00,,,0.28,,2013-04-09 18:52:00,
2013-04-09 12:02:00,43.0,28.0,29.91,NNE,31,14.0,22.0,55,0.00,,,0.28,,2013-04-09 19:02:00,
2013-04-09 12:11:00,43.0,28.0,29.91,NNE,31,14.0,22.0,55,0.00,,,0.28,,2013-04-09 19:11:00,
2013-04-09 12:31:00,44.0,29.0,29.91,NNW,338,11.0,22.0,55,0.00,,,0.23,,2013-04-09 19:31:00,
2013-04-09 12:42:00,44.0,29.0,29.91,NNW,338,11.0,22.0,55,0.00,,,0.23,,2013-04-09 19:42:00,
2013-04-09 12:52:00,45.0,28.0,29.91,North,355,13.0,21.0,52,0.00,,,0.23,,2013-04-09 19:52:00,
2013-04-09 13:02:00,45.0,28.0,29.91,North,355,13.0,22.0,51,0.00,,,0.23,,2013-04-09 20:02:00,
2013-04-09 13:11:00,46.0,28.0,29.91,North,5,13.0,23.0,50,0.00,,,0.23,,2013-04-09 20:11:00,
2013-04-09 13:22:00,46.0,28.0,29.91,North,5,13.0,23.0,50,0.00,,,0.23,,2013-04-09 20:22:00,
2013-04-09 13:32:00,46.0,27.0,29.91,NNW,327,12.0,25.0,48,0.00,,,0.16,,2013-04-09 20:32:00,
2013-04-09 13:42:00,46.0,27.0,29.91,NNW,327,12.0,25.0,48,0.00,,,0.16,,2013-04-09 20:42:00,
2013-04-09 13:52:00,46.0,28.0,29.91,NNW,348,13.0,20.0,50,0.00,,,0.16,,2013-04-09 20:52:00,
2013-04-09 14:02:00,46.0,27.0,29.91,North,5,18.0,29.0,48,0.00,,,0.16,,2013-04-09 21:02:00,
2013-04-09 14:22:00,46.0,27.0,29.91,North,5,18.0,29.0,48,0.00,,,0.16,,2013-04-09 21:22:00,
2013-04-09 14:32:00,47.0,27.0,29.90,North,349,18.0,30.0,45,0.00,,,0.14,,2013-04-09 21:32:00,
2013-04-09 14:42:00,47.0,27.0,29.90,North,349,18.0,30.0,45,0.00,,,0.14,,2013-04-09 21:42:00,
2013-04-09 14:53:00,47.0,27.0,29.91,NNW,342,12.0,25.0,45,0.00,,,0.14,,2013-04-09 21:53:00,
2013-04-09 15:02:00,48.0,27.0,29.90,North,349,17.0,28.0,44,0.00,,,0.14,,2013-04-09 22:02:00,
2013-04-09 15:12:00,48.0,26.0,29.89,North,360,14.0,27.0,42,0.00,,,0.13,,2013-04-09 22:12:00,
2013-04-09 15:22:00,48.0,26.0,29.89,North,360,14.0,27.0,42,0.00,,,0.13,,2013-04-09 22:22:00,
2013-04-09 15:32:00,49.0,27.0,29.89,NNW,345,17.0,26.0,43,0.00,,,0.13,,2013-04-09 22:32:00,
2013-04-09 15:42:00,49.0,27.0,29.89,NNW,345,17.0,26.0,43,0.00,,,0.13,,2013-04-09 22:42:00,
2013-04-09 15:53:00,48.0,26.0,29.89,NNW,337,20.0,33.0,42,0.00,,,0.13,,2013-04-09 22:53:00,
2013-04-09 16:02:00,48.0,24.0,29.89,North,5,18.0,30.0,39,0.00,,,0.13,,2013-04-09 23:02:00,
2013-04-09 16:12:00,49.0,27.0,29.88,North,360,17.0,31.0,42,0.00,,,0.10,,2013-04-09 23:12:00,
2013-04-09 16:22:00,49.0,27.0,29.88,North,360,17.0,31.0,42,0.00,,,0.10,,2013-04-09 23:22:00,
2013-04-09 16:31:00,49.0,23.0,29.89,NW,313,17.0,28.0,35,0.00,,,0.10,,2013-04-09 23:31:00,
2013-04-09 16:42:00,49.0,23.0,29.89,NW,313,17.0,28.0,35,0.00,,,0.10,,2013-04-09 23:42:00,
2013-04-09 16:52:00,49.0,24.0,29.90,NNW,344,19.0,27.0,37,0.00,,,0.10,,2013-04-09 23:52:00,
2013-04-09 17:02:00,49.0,24.0,29.90,NNW,344,19.0,27.0,37,0.00,,,0.10,,2013-04-10 00:02:00,
2013-04-09 17:11:00,49.0,24.0,29.90,NNW,344,19.0,27.0,37,0.00,,,0.10,,2013-04-10 00:11:00,
2013-04-09 17:22:00,49.0,23.0,29.89,North,355,17.0,27.0,36,0.00,,,0.10,,2013-04-10 00:22:00,
2013-04-09 17:32:00,48.0,22.0,29.90,NNE,15,17.0,27.0,35,0.00,,,0.07,,2013-04-10 00:32:00,
2013-04-09 17:41:00,48.0,22.0,29.90,NNE,15,17.0,27.0,35,0.00,,,0.07,,2013-04-10 00:41:00,
2013-04-09 17:51:00,48.0,22.0,29.91,NNE,16,17.0,25.0,35,0.00,,,0.07,,2013-04-10 00:51:00,
2013-04-09 18:01:00,48.0,22.0,29.91,NNE,16,17.0,25.0,35,0.00,,,0.07,,2013-04-10 01:01:00,
2013-04-09 18:11:00,47.0,23.0,29.91,NNW,340,15.0,25.0,38,0.00,,,0.07,,2013-04-10 01:11:00,
2013-04-09 18:22:00,47.0,23.0,29.91,NNW,340,15.0,25.0,38,0.00,,,0.07,,2013-04-10 01:22:00,
2013-04-09 18:31:00,46.0,24.0,29.91,NNW,328,15.0,21.0,41,0.00,,,0.04,,2013-04-10 01:31:00,
2013-04-09 18:42:00,46.0,24.0,29.91,NNW,328,15.0,21.0,41,0.00,,,0.04,,2013-04-10 01:42:00,
2013-04-09 18:52:00,46.0,24.0,29.92,North,349,14.0,24.0,41,0.00,,,0.04,,2013-04-10 01:52:00,
2013-04-09 19:01:00,46.0,25.0,29.91,North,351,11.0,26.0,43,0.00,,,0.04,,2013-04-10 02:01:00,
2013-04-09 19:11:00,46.0,25.0,29.91,North,351,11.0,26.0,43,0.00,,,0.04,,2013-04-10 02:11:00,
2013-04-09 19:21:00,45.0,25.0,29.92,NNW,331,12.0,28.0,46,0.00,,,0.03,,2013-04-10 02:21:00,
2013-04-09 19:31:00,45.0,25.0,29.91,North,351,18.0,29.0,45,0.00,,,0.03,,2013-04-10 02:31:00,
2013-04-09 19:42:00,45.0,25.0,29.91,North,351,18.0,29.0,45,0.00,,,0.03,,2013-04-10 02:42:00,
2013-04-09 19:52:00,45.0,25.0,29.92,North,350,15.0,27.0,46,0.00,,,0.03,,2013-04-10 02:52:00,
2013-04-09 20:01:00,45.0,25.0,29.92,North,350,15.0,27.0,46,0.00,,,0.03,,2013-04-10 03:01:00,
2013-04-09 20:11:00,45.0,25.0,29.92,North,350,15.0,27.0,46,0.00,,,0.03,,2013-04-10 03:11:00,
2013-04-09 20:22:00,45.0,27.0,29.94,NNW,347,17.0,31.0,48,0.00,,,0.02,,2013-04-10 03:22:00,
2013-04-09 20:32:00,45.0,27.0,29.94,NNW,344,17.0,23.0,49,0.00,,,0.02,,2013-04-10 03:32:00,
2013-04-09 20:43:00,45.0,27.0,29.94,NNW,344,17.0,23.0,49,0.00,,,0.02,,2013-04-10 03:43:00,
2013-04-09 20:52:00,45.0,27.0,29.95,North,360,20.0,29.0,48,0.00,,,0.02,,2013-04-10 03:52:00,
2013-04-09 21:02:00,45.0,27.0,29.96,NNW,336,19.0,28.0,48,0.00,,,0.02,,2013-04-10 04:02:00,
2013-04-09 21:12:00,45.0,27.0,29.96,NNW,336,19.0,28.0,48,0.00,,,0.02,,2013-04-10 04:12:00,
2013-04-09 21:22:00,45.0,27.0,29.97,NNW,338,17.0,25.0,49,0.00,,,0.02,,2013-04-10 04:22:00,
2013-04-09 21:32:00,44.0,26.0,29.98,North,351,16.0,25.0,49,0.00,,,0.01,,2013-04-10 04:32:00,
2013-04-09 21:42:00,44.0,26.0,29.98,North,351,16.0,25.0,49,0.00,,,0.01,,2013-04-10 04:42:00,
2013-04-09 21:52:00,44.0,26.0,29.98,North,351,16.0,25.0,49,0.00,,,0.01,,2013-04-10 04:52:00,
2013-04-09 22:02:00,44.0,26.0,29.99,NNW,346,16.0,26.0,49,0.00,,,0.01,,2013-04-10 05:02:00,
2013-04-09 22:12:00,44.0,26.0,30.00,North,360,14.0,23.0,48,0.00,,,0.01,,2013-04-10 05:12:00,
2013-04-09 22:22:00,44.0,26.0,30.00,North,360,14.0,23.0,48,0.00,,,0.01,,2013-04-10 05:22:00,
2013-04-09 22:32:00,44.0,26.0,30.00,NNW,338,13.0,23.0,49,0.00,,,0.01,,2013-04-10 05:32:00,
2013-04-09 22:42:00,44.0,26.0,30.00,NNW,338,13.0,23.0,49,0.00,,,0.01,,2013-04-10 05:42:00,
2013-04-09 22:53:00,45.0,24.0,30.01,North,351,11.0,18.0,44,0.00,,,0.01,,2013-04-10 05:53:00,
2013-04-09 23:02:00,46.0,22.0,30.01,NNW,336,8.0,13.0,39,0.00,,,0.01,,2013-04-10 06:02:00,
2013-04-09 23:12:00,47.0,23.0,30.01,North,5,6.0,14.0,38,0.00,,,0.01,,2013-04-10 06:12:00,
2013-04-09 23:21:00,47.0,23.0,30.01,North,5,6.0,14.0,38,0.00,,,0.01,,2013-04-10 06:21:00,
2013-04-09 23:32:00,47.0,23.0,30.01,WNW,300,10.0,14.0,38,0.00,,,0.01,,2013-04-10 06:32:00,
2013-04-09 23:41:00,47.0,23.0,30.01,WNW,300,10.0,14.0,38,0.00,,,0.01,,2013-04-10 06:41:00,
2013-04-09 23:52:00,47.0,23.0,30.02,North,360,7.0,13.0,39,0.00,,,0.01,,2013-04-10 06:52:00,